Temperature
13 14 14 15 15 16 17 19 21 22 22 22 22 23 22 21 21 18 17 17 16 17 17 16 16 16 16 16 16 16 16 16 16 16 16 16 16 16 16 15 15 15 15 15 15 15 15 15 15
13 13 14 15 15 16 18 19 20 21 21 21 22 22 21 19 18 17 17 16 16 16 16 16 16 16 16 16 16 16 16 16 16 15 15 15 15 15 15 15 15 15 15 15 15 15 15 15 15
13 13 14 15 16 17 18 19 19 20 20 21 21 21 20 18 17 16 16 16 16 16 16 16 16 16 16 16 16 16 16 15 15 15 15 15 15 15 15 15 15 15 15 15 15 15 15 15 15
12 13 14 15 16 17 18 19 19 19 19 20 20 19 18 17 16 16 16 15 15 15 16 16 16 16 16 16 16 15 15 15 15 15 15 15 15 15 15 15 15 15 15 15 15 15 15 15 15
12 14 14 15 16 18 19 19 19 18 19 19 19 18 16 16 16 16 15 15 15 15 15 15 15 15 15 15 15 15 15 15 15 15 15 15 15 15 15 15 15 15 15 15 15 15 15 15 15
13 14 14 14 16 17 18 18 18 18 18 19 19 18 16 16 15 15 15 15 15 15 15 15 15 15 15 15 15 15 15 15 15 15 15 15 15 15 15 15 15 15 15 15 15 15 15 15 15
13 13 14 15 16 16 17 18 17 17 17 18 18 17 15 15 15 15 14 14 14 14 15 15 15 15 15 15 15 15 15 15 15 15 15 15 15 15 15 15 15 15 15 15 15 15 15 15 15
12 13 14 15 15 16 17 17 17 17 17 17 17 17 15 15 14 14 14 14 14 14 14 14 14 14 14 14 14 14 15 15 15 14 14 14 14 14 14 14 14 14 14 14 14 14 14 14 14
12 12 13 14 15 15 16 16 16 16 16 16 16 16 15 14 14 14 14 14 14 14 14 14 14 14 14 14 14 14 14 14 14 14 14 14 14 14 14 14 14 14 14 14 14 14 14 14 14
12 12 13 15 15 15 15 15 15 15 15 15 14 14 14 14 13 13 13 13 13 13 13 14 14 14 14 14 14 14 14 14 14 14 14 14 13 13 13 14 14 14 14 14 14 14 14 13 13
13 12 14 14 15 14 14 14 14 15 14 14 14 13 13 13 13 13 13 13 13 13 13 13 13 13 14 14 13 13 14 14 14 14 14 13 13 13 13 13 13 13 13 13 13 13 13 13 13
13 13 14 13 13 13 14 13 13 14 14 14 14 14 13 13 12 12 12 12 13 13 13 13 13 13 13 13 13 13 13 13 13 13 14 13 13 13 13 13 13 13 13 13 13 13 13 13 12
12 12 13 13 13 13 13 13 13 13 13 14 14 13 13 12 12 12 12 12 12 12 13 13 13 13 13 13 13 13 13 13 13 13 13 13 13 13 13 13 13 13 13 13 13 13 12 12 12
12 12 12 12 13 13 13 13 13 13 13 13 13 13 12 12 12 12 12 12 12 12 12 12 12 13 13 13 13 13 13 13 13 13 13 13 13 13 13 13 13 13 13 13 12 12 12 12 12
12 12 12 13 13 13 12 12 12 13 13 13 13 12 12 12 12 12 12 12 12 12 12 12 12 12 12 12 12 12 12 12 13 13 13 13 13 13 13 13 12 13 13 13 12 12 12 12 12
12 11 11 12 13 12 12 11 13 12 13 12 12 12 12 12 12 11 11 11 12 12 12 12 12 12 12 12 12 12 12 12 12 12 12 12 13 13 13 12 12 12 12 12 12 12 12 12 12
11 11 11 12 13 13 12 12 12 13 13 13 12 12 12 11 11 11 11 11 11 11 12 12 12 12 12 12 12 12 12 12 12 12 12 12 12 12 12 12 12 12 12 12 12 12 12 11 11
11 11 12 12 12 12 12 12 12 13 13 13 12 12 12 11 11 11 11 11 11 11 11 11 12 12 12 12 12 12 12 11 11 12 12 12 12 12 12 12 12 12 12 12 12 11 11 11 11
12 12 12 12 12 12 12 12 12 12 13 12 12 12 12 11 11 11 11 11 11 11 11 11 11 11 11 11 11 11 11 11 11 11 11 12 12 11 12 11 11 11 11 11 11 11 11 11 10
12 12 12 12 12 12 12 12 12 12 12 12 12 12 12 12 11 11 11 11 11 11 11 11 11 11 11 11 11 11 11 11 11 11 11 11 11 11 11 11 11 11 11 11 11 11 10 10 10
12 12 12 11 12 12 12 11 12 12 13 12 12 12 12 12 11 11 11 10 11 11 10 10 10 11 11 11 11 11 11 11 11 11 11 10 11 11 11 10 10 10 10 10 10 10 10 10 9
11 12 12 12 11 10 12 10 12 12 12 12 12 12 12 12 11 11 10 10 10 10 10 10 10 10 10 10 10 11 11 10 10 10 10 10 10 10 10 10 10 10 10 10 10 10 9 9 9
11 11 11 11 11 11 11 10 11 12 11 11 12 12 12 12 11 11 10 10 10 10 10 10 10 10 10 10 10 10 10 10 10 10 10 10 10 10 9 9 9 9 9 9 9 9 9 9 9
11 11 11 11 10 10 11 11 11 11 12 12 12 12 12 12 11 11 10 10 10 10 10 10 10 10 10 10 10 10 10 10 10 9 9 9 9 9 9 9 9 9 9 9 9 9 9 8 8
11 10 10 10 10 10 12 11 10 12 13 12 12 12 12 11 11 11 10 10 10 10 10 10 10 9 9 9 9 9 9 9 9 9 9 9 9 9 9 9 9 8 8 8 8 8 8 8 8
11 11 9 9 10 10 11 10 11 12 12 12 12 12 11 11 11 10 10 10 10 10 10 9 9 9 9 9 9 9 9 9 9 9 8 8 8 9 8 8 8 8 8 8 8 8 8 8 7
11 10 11 10 10 10 10 11 11 11 11 11 11 11 11 10 10 10 10 9 9 9 9 9 9 9 9 9 9 9 9 9 9 8 8 8 8 8 8 8 8 8 8 8 8 7 7 7 7
10 11 9 9 9 10 11 11 10 10 10 10 10 10 10 10 10 9 9 9 9 9 9 9 9 9 9 9 9 9 9 8 8 8 8 8 8 8 8 8 7 7 7 7 7 7 7 6 6
10 10 10 10 10 9 10 10 12 11 10 10 10 11 10 10 10 9 9 9 9 9 9 8 8 8 8 8 8 8 8 8 8 8 8 8 7 7 7 7 7 7 7 7 6 6 6 6 6
10 10 10 9 9 10 9 9 12 11 11 10 10 10 10 10 9 9 9 8 8 8 8 8 8 8 8 8 8 8 8 8 8 8 7 7 7 7 7 7 6 6 6 6 6 6 5 5 5
Wind_Speed
13 12 5 2 3 6 11 7 7 4 4 2 4 2 2 4 3 6 5 8 10 11 13 13 12 11 10 9 8 8 8 7 7 6 6 6 5 5 5 5 6 6 6 6 6 6 6 6 5
11 8 3 3 6 10 8 8 7 4 1 2 3 2 3 5 6 7 5 8 10 10 12 12 13 12 11 9 9 8 8 7 7 6 6 6 5 5 5 5 5 6 6 5 5 5 5 5 4
10 7 3 4 7 11 7 3 4 3 1 0 1 3 3 4 5 4 5 7 8 9 11 13 13 12 11 9 9 8 7 7 7 6 5 5 5 5 5 5 6 6 5 5 5 4 4 4 3
4 3 4 6 11 11 7 4 1 2 1 0 3 2 3 5 3 4 6 6 8 9 11 12 13 12 11 10 9 8 8 7 6 6 5 5 5 6 5 5 5 5 4 4 4 4 3 3 2
4 3 6 8 12 9 6 4 4 3 2 2 2 2 2 3 6 7 6 6 7 8 10 11 12 12 12 11 9 9 8 7 6 6 5 5 5 5 5 5 4 4 4 3 3 3 2 2 2
3 4 6 10 11 8 5 4 5 4 2 3 2 2 2 5 6 4 5 5 6 7 9 9 11 12 11 10 9 8 8 7 7 6 5 5 5 5 5 5 4 4 3 3 2 2 2 2 2
4 4 7 9 8 8 7 4 4 4 4 3 2 2 4 6 4 4 5 5 6 7 8 8 8 10 10 10 9 8 8 7 7 6 6 6 5 5 5 5 4 4 3 2 2 1 1 1 1
3 3 7 8 8 7 5 4 4 4 4 2 2 2 4 5 5 4 5 5 5 6 6 6 7 8 9 9 8 7 7 7 6 6 5 5 5 5 5 5 4 3 2 1 1 0 1 2 3
4 4 6 7 6 5 3 3 3 3 2 3 2 2 4 9 6 5 4 5 5 5 4 4 5 5 7 8 7 7 7 6 6 5 5 5 4 4 5 5 4 2 1 0 1 2 3 4 5
3 4 7 5 5 4 2 2 2 2 2 2 2 5 7 7 6 6 5 5 5 4 4 3 4 4 5 5 6 5 5 5 4 3 3 2 3 4 4 4 3 1 1 2 3 4 4 4 4
3 5 6 6 5 3 2 3 3 4 3 3 3 5 5 6 5 5 4 4 4 4 4 4 4 4 4 3 4 3 3 3 2 3 2 2 3 3 3 2 2 1 1 2 3 4 4 3 2
4 6 6 5 4 3 2 2 4 4 4 3 2 6 6 6 5 5 4 4 4 5 4 4 4 3 3 4 3 3 3 3 4 4 4 3 3 3 3 2 2 2 2 3 3 3 3 3 3
5 5 5 4 4 4 2 4 5 4 3 1 4 7 6 6 5 4 4 4 5 5 4 4 4 4 4 4 2 3 3 3 5 5 4 4 2 2 3 2 2 3 3 3 3 4 3 2 3
3 4 5 5 4 3 3 5 3 3 1 2 5 6 5 5 5 5 5 5 4 4 4 4 4 4 4 3 3 2 3 4 4 4 5 5 5 4 3 2 2 3 3 4 4 4 3 2 2
4 5 5 4 4 2 2 5 5 3 2 2 4 6 5 4 5 5 4 5 4 4 4 4 4 4 4 3 3 3 3 4 4 4 5 6 5 4 3 2 2 3 4 4 4 4 3 2 2
4 4 3 2 3 2 3 5 3 3 3 4 4 5 5 4 4 4 5 5 4 5 4 4 4 5 4 3 3 3 4 4 4 5 5 5 5 4 4 2 2 4 5 4 2 2 3 3 2
3 3 3 1 3 2 4 4 2 4 5 5 4 4 5 4 4 4 5 5 5 5 5 5 5 4 4 3 3 4 5 4 4 5 4 4 5 5 5 3 3 4 3 2 2 3 2 3 3
3 3 3 2 2 3 4 2 2 3 4 4 5 4 4 4 4 5 6 6 5 4 4 4 4 4 4 3 3 3 3 2 3 4 4 4 5 6 5 3 3 4 2 2 2 2 2 2 3
5 5 3 1 1 2 4 3 3 3 4 3 4 4 5 4 5 6 6 6 5 5 4 3 4 3 3 2 2 2 2 1 1 2 3 3 4 4 4 3 2 3 2 2 2 2 2 2 3
5 5 3 2 2 2 3 4 3 3 4 4 4 4 4 5 5 6 6 5 5 5 4 3 3 3 3 2 1 1 3 1 2 2 2 1 2 3 3 3 2 2 2 3 3 2 2 2 3
3 3 3 2 3 3 2 3 4 4 4 4 3 4 4 5 6 6 6 6 5 5 4 4 3 3 3 3 2 2 3 1 1 1 1 0 1 2 3 2 2 2 2 2 2 2 2 2 2
3 3 4 3 2 2 3 2 4 5 5 4 4 4 4 4 5 5 5 5 5 5 4 4 3 3 3 3 3 3 2 2 2 1 2 1 1 2 2 1 1 1 1 2 2 2 1 1 1
2 4 5 5 3 3 2 2 3 6 5 5 5 4 4 5 5 6 6 5 5 5 4 4 3 3 3 3 3 2 2 2 2 1 1 1 1 2 2 0 0 0 0 1 2 2 2 1 1
3 3 4 3 2 2 3 3 3 4 6 7 6 5 5 5 5 5 6 6 5 5 4 4 3 2 3 3 2 2 2 2 2 1 1 1 1 1 2 2 1 1 0 0 1 1 1 1 2
3 1 1 1 2 3 2 2 3 2 3 4 6 6 5 4 4 5 5 5 5 6 5 4 4 3 3 3 3 2 2 2 2 2 1 0 0 1 2 2 2 1 1 1 1 1 2 2 2
4 2 1 1 2 2 1 3 2 3 4 4 4 4 4 5 4 4 5 5 5 6 5 4 4 4 4 3 3 3 2 2 2 2 1 1 1 2 2 2 2 2 2 2 1 1 2 2 2
3 1 1 2 4 2 3 2 2 4 4 4 4 4 4 4 4 4 4 5 5 5 5 5 5 4 4 3 3 3 2 2 2 2 2 2 2 1 1 2 2 2 2 2 2 2 2 2 2
3 3 1 1 2 3 3 3 3 4 4 5 5 5 5 4 4 4 4 4 4 4 4 4 4 4 3 3 3 2 2 3 3 2 3 3 2 2 2 2 3 3 3 3 3 3 3 3 3
2 2 2 3 2 2 3 3 1 4 4 4 4 4 5 5 5 4 4 4 4 4 4 4 3 3 3 2 2 2 2 2 3 3 4 3 3 3 3 3 3 4 4 4 3 4 4 4 4
2 3 2 1 4 3 3 4 2 4 4 3 3 3 3 4 4 4 4 4 4 3 3 3 3 2 2 2 1 2 2 2 3 3 4 3 3 3 4 4 4 4 4 4 4 5 5 5 5
Wind_Direction
305 288 272 259 236 230 236 235 250 248 255 320 341 4 18 18 50 114 134 104 110 118 127 132 129 126 124 121 121 121 120 116 112 112 109 105 101 106 107 102 100 93 86 83 81 79 77 76 74
297 291 266 235 227 230 229 223 242 257 316 358 345 358 54 60 65 101 107 104 114 117 127 132 131 130 126 125 124 124 122 118 113 112 115 110 105 105 108 101 101 97 90 84 81 78 75 75 71
280 269 245 230 230 233 231 207 223 256 349 10 24 1 24 72 82 96 102 109 111 112 118 129 134 131 128 126 125 125 124 120 116 109 113 111 105 104 101 95 96 94 88 81 78 75 72 71 63
275 237 236 238 237 236 243 253 255 242 303 195 123 78 49 43 74 98 104 108 111 111 113 127 134 134 131 129 127 125 123 121 116 111 104 107 101 95 93 92 94 91 88 83 75 69 63 58 52
242 245 226 233 239 242 244 250 281 262 221 244 156 123 79 58 76 91 98 101 107 108 109 127 135 138 135 133 131 126 122 120 114 113 108 104 105 100 94 91 93 93 89 81 73 67 54 49 37
248 235 233 231 237 237 239 262 269 271 260 241 209 156 115 106 88 92 91 97 102 105 108 120 135 137 135 132 131 127 123 120 114 112 110 103 104 104 100 92 88 86 88 81 71 60 45 36 16
257 248 243 247 243 237 235 242 265 271 253 236 212 165 140 127 102 94 97 100 100 104 110 113 124 134 134 129 128 128 125 122 122 119 116 108 105 112 108 96 86 75 76 75 64 51 23 346 319
274 277 251 250 245 245 238 240 262 260 256 267 251 172 150 138 121 104 104 106 101 106 111 116 121 132 131 125 127 128 127 131 136 141 142 141 133 135 128 107 95 81 73 82 71 339 302 289 276
264 248 246 249 248 252 263 272 280 303 277 295 336 18 117 128 130 120 115 107 101 101 107 112 114 117 125 131 136 136 140 147 150 154 161 167 161 140 133 119 115 105 83 214 242 265 266 265 263
232 241 254 275 280 279 273 276 270 264 259 285 42 64 100 126 133 133 134 128 116 107 100 110 111 109 118 135 140 149 148 153 160 146 164 178 98 86 106 135 142 150 262 279 259 267 269 265 264
243 253 269 288 306 317 284 293 276 256 253 247 155 126 123 135 136 136 132 133 127 114 94 82 90 101 107 113 124 116 114 124 105 97 100 96 90 82 86 133 155 214 276 322 304 279 272 283 281
250 262 272 285 323 311 280 291 287 255 272 302 149 142 145 148 149 147 145 140 124 108 99 89 85 86 82 82 96 98 91 93 73 59 49 50 59 62 54 55 42 29 14 352 334 305 303 322 330
256 265 281 279 275 280 283 273 269 268 287 322 120 131 144 145 140 146 140 129 119 110 102 100 92 91 82 73 75 86 76 76 71 54 47 46 53 66 47 36 34 33 10 360 336 326 328 335 336
270 271 271 263 249 254 263 275 270 244 224 126 131 132 139 141 137 139 129 125 119 114 108 100 96 91 86 79 69 71 79 80 78 63 46 46 50 46 45 36 23 23 7 351 341 340 340 324 323
264 259 257 238 215 215 252 256 242 217 178 151 144 133 136 132 121 117 121 123 130 122 112 110 107 93 86 82 69 72 83 84 75 62 51 46 49 42 47 40 20 16 5 1 356 346 348 322 320
238 242 248 220 190 200 223 245 209 198 189 179 153 137 130 129 126 115 114 116 114 112 109 103 102 94 88 83 73 71 67 70 70 61 55 43 38 38 46 51 24 6 9 8 355 347 356 344 342
241 253 257 251 195 201 221 247 186 199 180 157 144 133 125 126 124 120 120 114 106 106 110 101 90 89 89 86 78 71 64 63 67 60 56 47 39 32 48 51 17 8 18 17 356 6 8 353 342
283 270 252 254 214 213 227 246 193 205 169 161 151 139 133 144 139 130 124 119 114 109 107 107 99 94 97 98 90 84 79 67 73 66 51 42 43 34 41 48 22 8 29 23 8 1 5 352 327
291 276 271 318 302 245 229 241 224 213 178 171 153 148 154 154 135 129 124 119 115 111 109 113 108 103 103 105 111 111 114 126 106 89 67 38 47 40 43 39 25 20 39 21 8 10 1 351 348
283 282 306 346 326 280 228 247 221 194 181 171 160 158 163 156 137 134 133 131 131 128 128 126 119 119 113 105 106 118 111 134 129 107 86 40 50 49 46 36 26 28 29 25 20 15 356 349 14
289 299 301 296 296 260 235 251 210 180 158 156 159 161 160 164 154 151 148 148 144 144 155 150 142 139 134 125 110 97 91 79 99 126 115 311 74 75 54 26 21 24 30 34 20 13 20 343 340
295 340 312 286 274 258 218 247 222 180 167 177 181 170 164 157 154 151 152 158 155 155 150 146 145 144 143 134 133 141 147 157 174 170 155 175 151 123 85 23 15 25 24 17 4 27 4 359 314
305 309 282 264 255 273 230 227 236 172 181 192 190 170 157 156 155 156 158 161 153 141 142 146 145 148 145 144 149 149 146 145 123 108 143 161 162 160 152 170 340 7 24 25 4 350 344 338 302
282 277 265 248 242 265 224 213 248 189 193 184 182 174 159 159 157 156 152 145 139 132 137 148 147 161 159 160 170 169 152 135 125 113 139 188 179 169 181 191 210 231 227 33 289 294 299 279 280
292 327 360 328 235 241 170 198 240 149 132 154 164 164 155 158 156 154 148 148 146 145 152 156 158 170 176 175 181 180 166 159 158 162 171 191 205 202 210 204 212 218 220 227 240 263 270 269 268
284 307 46 268 271 283 223 218 215 104 102 99 111 126 140 147 149 152 153 153 153 158 158 162 170 176 178 180 184 184 183 174 176 164 169 211 220 220 199 207 213 221 226 236 246 258 259 262 264
307 309 324 298 288 272 243 214 145 133 127 140 147 149 152 146 145 149 150 152 153 161 168 173 173 174 180 183 183 194 189 180 190 190 205 219 227 224 211 212 224 227 223 227 239 246 255 256 251
273 308 325 276 309 290 260 224 204 177 180 172 168 167 163 151 148 147 149 150 150 156 160 161 168 177 182 178 186 192 197 203 205 206 218 226 231 226 231 232 234 235 230 222 226 243 250 248 250
200 242 255 268 250 262 287 275 27 153 158 165 166 162 159 159 156 155 156 155 149 149 154 160 171 174 176 179 190 201 212 214 216 222 226 225 229 230 232 234 235 236 234 228 224 232 240 247 255
258 240 213 231 273 247 262 270 41 90 115 129 134 129 133 139 145 150 152 144 142 148 152 161 171 173 178 179 190 216 229 229 229 235 236 229 230 234 235 236 236 239 238 233 231 239 239 242 249
Height
1504 1506 1508 1511 1513 1511 1504 1496 1490 1490 1490 1492 1492 1492 1494 1498 1502 1512 1513 1511 1512 1513 1515 1518 1520 1522 1523 1525 1526 1528 1529 1530 1531 1532 1532 1533 1534 1534 1535 1535 1536 1536 1537 1537 1538 1538 1538 1539 1539
1504 1506 1509 1510 1510 1508 1500 1493 1492 1491 1492 1493 1493 1494 1496 1501 1504 1507 1509 1511 1512 1513 1515 1517 1519 1521 1523 1525 1526 1527 1529 1530 1531 1532 1532 1533 1534 1534 1535 1536 1536 1537 1537 1537 1538 1538 1538 1539 1539
1504 1506 1509 1507 1503 1500 1497 1491 1492 1492 1493 1494 1495 1497 1499 1504 1506 1507 1509 1510 1512 1513 1515 1517 1519 1521 1523 1525 1526 1527 1529 1530 1531 1532 1533 1533 1534 1535 1535 1536 1536 1536 1537 1537 1538 1538 1538 1538 1539
1505 1507 1507 1505 1499 1493 1493 1492 1492 1493 1494 1494 1496 1500 1502 1506 1506 1507 1509 1510 1512 1513 1514 1517 1519 1520 1522 1524 1526 1527 1528 1530 1531 1532 1532 1533 1534 1534 1535 1535 1536 1536 1537 1537 1537 1537 1538 1538 1538
1505 1505 1504 1502 1495 1492 1491 1492 1493 1494 1494 1495 1497 1500 1503 1506 1506 1507 1509 1510 1511 1512 1514 1516 1518 1520 1522 1524 1526 1527 1528 1529 1530 1531 1532 1533 1534 1534 1535 1535 1535 1536 1536 1536 1537 1537 1537 1537 1537
1505 1502 1502 1500 1494 1492 1492 1493 1493 1494 1495 1496 1497 1499 1503 1505 1506 1507 1509 1510 1512 1512 1513 1516 1518 1520 1522 1523 1525 1527 1528 1529 1530 1531 1532 1532 1533 1534 1534 1534 1535 1535 1535 1536 1536 1536 1536 1536 1537
1504 1501 1499 1495 1494 1493 1492 1493 1494 1494 1495 1496 1497 1499 1502 1504 1506 1507 1509 1510 1511 1512 1513 1515 1517 1519 1521 1523 1525 1526 1527 1528 1529 1530 1531 1532 1532 1533 1533 1534 1534 1534 1535 1535 1535 1535 1535 1536 1536
1502 1501 1497 1494 1494 1493 1492 1493 1494 1494 1495 1496 1497 1497 1500 1503 1504 1506 1508 1509 1511 1512 1513 1514 1516 1518 1520 1522 1524 1526 1527 1528 1529 1530 1530 1531 1532 1532 1533 1533 1533 1534 1534 1534 1534 1534 1534 1534 1535
1501 1503 1498 1494 1493 1493 1492 1493 1494 1494 1494 1494 1495 1496 1498 1500 1503 1505 1507 1509 1510 1511 1512 1514 1516 1517 1520 1521 1523 1525 1526 1527 1528 1529 1530 1530 1531 1531 1532 1532 1532 1533 1533 1533 1533 1533 1533 1533 1533
1500 1501 1496 1493 1492 1492 1492 1493 1494 1494 1494 1494 1495 1496 1498 1500 1501 1504 1506 1507 1508 1510 1512 1513 1515 1517 1518 1521 1522 1523 1525 1526 1527 1528 1529 1529 1530 1530 1531 1531 1531 1532 1532 1532 1532 1532 1532 1532 1532
1498 1497 1495 1494 1493 1493 1493 1493 1494 1494 1494 1494 1494 1495 1497 1499 1501 1503 1505 1506 1508 1509 1511 1512 1514 1516 1518 1519 1521 1523 1524 1525 1526 1527 1528 1528 1528 1529 1529 1530 1530 1530 1530 1531 1531 1531 1531 1531 1532
1497 1496 1495 1495 1494 1494 1494 1494 1495 1494 1494 1493 1493 1494 1497 1499 1501 1502 1504 1506 1507 1508 1510 1512 1513 1515 1517 1518 1520 1521 1523 1524 1525 1526 1526 1527 1527 1527 1528 1528 1529 1529 1529 1529 1529 1530 1530 1530 1530
1497 1496 1495 1495 1494 1494 1494 1494 1495 1494 1493 1492 1492 1494 1496 1499 1501 1503 1504 1505 1506 1507 1509 1511 1512 1514 1515 1517 1518 1520 1521 1522 1523 1524 1525 1525 1525 1525 1526 1527 1527 1527 1528 1528 1528 1528 1528 1528 1528
1496 1495 1495 1494 1494 1494 1494 1494 1494 1493 1493 1493 1493 1494 1496 1499 1500 1501 1502 1503 1504 1506 1508 1510 1511 1513 1514 1515 1517 1518 1519 1520 1521 1522 1523 1523 1524 1524 1525 1525 1526 1526 1526 1526 1527 1526 1527 1527 1527
1496 1496 1494 1493 1492 1493 1495 1495 1492 1492 1493 1493 1494 1494 1496 1498 1499 1500 1501 1502 1504 1505 1507 1509 1510 1511 1512 1514 1516 1517 1517 1519 1520 1521 1522 1522 1523 1523 1523 1524 1524 1524 1525 1525 1525 1525 1525 1525 1525
1495 1496 1496 1491 1491 1492 1497 1496 1491 1491 1492 1492 1493 1494 1495 1497 1499 1500 1501 1502 1504 1504 1506 1507 1509 1510 1511 1513 1514 1515 1516 1517 1518 1519 1520 1520 1521 1521 1521 1522 1522 1523 1523 1523 1523 1523 1523 1523 1523
1496 1497 1494 1491 1489 1490 1493 1492 1490 1490 1490 1490 1492 1493 1495 1497 1499 1500 1500 1501 1503 1504 1505 1506 1508 1509 1510 1511 1512 1513 1514 1515 1516 1517 1518 1519 1519 1519 1520 1520 1521 1521 1521 1521 1521 1521 1522 1521 1521
1498 1494 1492 1492 1489 1489 1491 1491 1489 1488 1489 1490 1491 1493 1495 1496 1498 1499 1500 1501 1503 1504 1505 1506 1507 1508 1509 1510 1511 1511 1512 1514 1515 1516 1517 1517 1517 1517 1518 1518 1519 1519 1519 1519 1520 1520 1520 1519 1519
1494 1492 1491 1490 1488 1489 1490 1490 1489 1488 1488 1489 1490 1492 1494 1496 1498 1499 1500 1501 1502 1503 1504 1505 1505 1506 1507 1508 1509 1510 1511 1513 1514 1515 1515 1515 1516 1516 1516 1517 1517 1517 1517 1517 1517 1517 1518 1517 1517
1492 1492 1491 1490 1487 1488 1489 1489 1486 1486 1487 1488 1489 1491 1493 1495 1496 1497 1498 1500 1501 1502 1504 1504 1504 1505 1506 1507 1508 1509 1510 1512 1513 1513 1514 1514 1514 1514 1515 1516 1516 1515 1515 1516 1515 1515 1515 1515 1515
1491 1493 1492 1492 1490 1488 1489 1490 1487 1485 1486 1487 1489 1490 1492 1493 1495 1496 1497 1498 1500 1501 1503 1503 1504 1505 1506 1506 1507 1508 1509 1510 1510 1511 1512 1512 1512 1512 1513 1514 1514 1514 1514 1514 1514 1514 1513 1514 1514
1494 1492 1491 1491 1494 1495 1491 1499 1487 1483 1485 1486 1487 1489 1491 1493 1494 1495 1496 1497 1498 1500 1501 1502 1503 1504 1504 1505 1506 1507 1508 1508 1508 1509 1510 1510 1510 1510 1511 1512 1512 1512 1512 1512 1511 1511 1511 1511 1511
1495 1492 1491 1490 1493 1494 1491 1496 1488 1482 1485 1485 1485 1487 1489 1491 1493 1494 1495 1496 1497 1499 1500 1501 1502 1503 1503 1504 1505 1505 1506 1506 1506 1507 1507 1508 1508 1508 1510 1510 1510 1510 1510 1509 1509 1509 1509 1509 1509
1493 1492 1490 1490 1494 1500 1490 1493 1490 1482 1480 1481 1483 1485 1487 1490 1491 1493 1494 1495 1496 1497 1498 1499 1500 1502 1502 1503 1503 1504 1504 1504 1505 1505 1505 1506 1506 1507 1508 1508 1508 1508 1507 1507 1507 1507 1506 1506 1506
1494 1498 1501 1501 1501 1497 1486 1490 1488 1477 1475 1478 1481 1483 1486 1488 1490 1491 1492 1493 1494 1495 1496 1497 1499 1500 1501 1501 1502 1502 1503 1503 1503 1503 1504 1504 1505 1505 1506 1506 1506 1505 1505 1505 1505 1504 1504 1504 1504
1495 1496 1506 1508 1502 1495 1487 1491 1484 1477 1476 1477 1480 1482 1485 1487 1488 1490 1491 1492 1492 1493 1495 1496 1497 1498 1499 1500 1500 1501 1501 1501 1502 1501 1502 1503 1503 1503 1503 1503 1503 1503 1503 1503 1502 1502 1501 1501 1501
1496 1497 1495 1501 1497 1498 1490 1482 1480 1477 1478 1479 1481 1482 1484 1486 1487 1488 1490 1491 1491 1492 1493 1494 1496 1496 1497 1498 1498 1499 1499 1499 1499 1500 1501 1501 1501 1501 1500 1500 1500 1500 1500 1499 1499 1499 1498 1498 1498
1497 1495 1499 1503 1504 1501 1486 1482 1484 1480 1478 1479 1480 1481 1482 1484 1486 1487 1488 1489 1490 1491 1492 1493 1494 1495 1495 1496 1496 1496 1496 1497 1498 1498 1498 1498 1498 1498 1498 1497 1497 1496 1496 1496 1496 1495 1495 1495 1494
1497 1497 1496 1498 1497 1502 1497 1491 1475 1474 1475 1477 1478 1479 1481 1482 1484 1485 1486 1488 1489 1490 1490 1491 1492 1492 1493 1493 1493 1493 1494 1495 1495 1495 1495 1495 1495 1495 1494 1493 1493 1493 1493 1492 1492 1492 1491 1491 1490
1493 1493 1495 1503 1500 1495 1498 1494 1474 1473 1473 1475 1477 1479 1480 1482 1483 1484 1485 1486 1487 1487 1488 1489 1489 1490 1490 1490 1490 1491 1491 1491 1492 1492 1492 1492 1491 1491 1490 1490 1489 1489 1488 1488 1488 1488 1487 1487 1486